Weather History for Longville, MN

Change the Weather History Date:

Friday, December 28, 2012

  Actual Average (KPWC) Record (KPWC)
Temperature  
Mean Temperature 14 °F -  
Max Temperature 21 °F 19 °F 39 °F (1999)
Min Temperature 6 °F 3 °F -16 °F (2008)
Degree Days  
Heating Degree Days 52    
Moisture  
Dew Point 11 °F    
Average Humidity 89    
Maximum Humidity 93    
Minimum Humidity 80    
Precipitation  
Precipitation 0.00 in - - ()
Sea Level Pressure  
Sea Level Pressure 30.05 in    
Wind  
Wind Speed 0 mph (West)    
Max Wind Speed 4 mph    
Max Gust Speed -    
Visibility 7 miles    
Events Snow    
Averages and records for this station are not official NWS values.
T = Trace of Precipitation, MM = Missing Value Source: NWS Daily Summary

Daily Weather History Graph

Daily Weather History Graph

Search for Another Location

Airport:

Trip Planner

Search our weather history database for the weather conditions in past years. The results will help you decide how hot, cold, wet, or windy it might be!

Date:

Astronomy

Dec. 28, 2012 Rise Set
Actual Time 8:02 AM CST 4:35 PM CST
Civil Twilight 7:26 AM CST 5:10 PM CST
Nautical Twilight 6:48 AM CST 5:49 PM CST
Astronomical Twilight 6:11 AM CST 6:26 PM CST
Moon 5:16 PM CST (12/28) 7:53 AM CST (12/28)
Length of Visible Light 9h 43m
Length of Day
8h 32m
Full, 100% of the Moon is Illuminated
Dec 28
Full
Jan 4
Last Quarter
Jan 11
New
Jan 18
First Quarter
Jan 26
Full

Hourly Weather History & Observations

Time (CST) Temp. Windchill Dew Point Humidity Pressure Visibility Wind Dir Wind Speed Gust Speed Precip Events Conditions
12:16 AM 10.4 °F - 8.6 °F 92% 30.13 in 3.0 mi Calm Calm - N/A Snow Light Snow
12:36 AM 8.6 °F - 6.8 °F 92% 30.13 in 5.0 mi Calm Calm - N/A Snow Light Snow
12:56 AM 10.4 °F - 8.6 °F 92% 30.13 in 1.8 mi Calm Calm - N/A Snow Light Snow
1:16 AM 10.4 °F - 8.6 °F 92% 30.12 in 2.0 mi Calm Calm - N/A Snow Light Snow
1:36 AM 10.4 °F - 8.6 °F 92% 30.12 in 1.0 mi Calm Calm - N/A Snow Light Snow
1:56 AM 10.4 °F - 8.6 °F 92% 30.12 in 1.2 mi Calm Calm - N/A Snow Light Snow
2:16 AM 10.4 °F - 8.6 °F 92% 30.12 in 1.2 mi Calm Calm - N/A Snow Light Snow
2:36 AM 10.4 °F - 8.6 °F 92% 30.12 in 1.0 mi Calm Calm - N/A Snow Snow
2:56 AM 10.4 °F - 8.6 °F 92% 30.11 in 4.0 mi Calm Calm - N/A Snow Light Snow
3:16 AM 8.6 °F - 6.8 °F 92% 30.11 in 5.0 mi Calm Calm - N/A Snow Light Snow
3:36 AM 8.6 °F - 6.8 °F 92% 30.11 in 4.0 mi Calm Calm - N/A Snow Light Snow
3:56 AM 8.6 °F - 6.8 °F 92% 30.11 in 7.0 mi Calm Calm - N/A Snow Light Snow
4:16 AM 8.6 °F - 6.8 °F 92% 30.10 in 10.0 mi Calm Calm - N/A   Mostly Cloudy
4:36 AM 8.6 °F - 6.8 °F 92% 30.09 in 5.0 mi Calm Calm - N/A Snow Light Snow
5:16 AM 8.6 °F - 6.8 °F 92% 30.09 in 7.0 mi Calm Calm - N/A   Clear
5:56 AM 8.6 °F - 6.8 °F 92% 30.09 in 5.0 mi Calm Calm - N/A Snow Light Snow
6:16 AM 8.6 °F - 6.8 °F 92% 30.08 in 5.0 mi Calm Calm - N/A Snow Light Snow
6:36 AM 6.8 °F - 5.0 °F 92% 30.08 in 4.0 mi Calm Calm - N/A Snow Light Snow
6:56 AM 6.8 °F - 5.0 °F 92% 30.08 in 5.0 mi Calm Calm - N/A Snow Light Snow
7:16 AM 6.8 °F - 3.2 °F 85% 30.08 in 4.0 mi Calm Calm - N/A Snow Light Snow
7:36 AM 6.8 °F - 3.2 °F 85% 30.08 in 4.0 mi Calm Calm - N/A Snow Light Snow
7:56 AM 6.8 °F - 3.2 °F 85% 30.08 in 5.0 mi Calm Calm - N/A Snow Light Snow
8:16 AM 6.8 °F - 3.2 °F 85% 30.08 in 3.0 mi Calm Calm - N/A Snow Light Snow
8:36 AM 6.8 °F - 3.2 °F 85% 30.07 in 7.0 mi Calm Calm - N/A Snow Light Snow
8:56 AM 6.8 °F - 5.0 °F 92% 30.07 in 2.5 mi Calm Calm - N/A Snow Light Snow
9:16 AM 8.6 °F - 6.8 °F 92% 30.08 in 7.0 mi Calm Calm - N/A Snow Light Snow
9:36 AM 8.6 °F - 6.8 °F 92% 30.08 in 5.0 mi Calm Calm - N/A Snow Light Snow
9:56 AM 10.4 °F - 8.6 °F 92% 30.08 in 4.0 mi Calm Calm - N/A Snow Light Snow
10:16 AM 12.2 °F - 10.4 °F 92% 30.08 in 7.0 mi Calm Calm - N/A Snow Light Snow
10:36 AM 15.8 °F - 12.2 °F 86% 30.08 in 7.0 mi Calm Calm - N/A   Clear
10:56 AM 17.6 °F - 14.0 °F 86% 30.07 in 7.0 mi Calm Calm - N/A Snow Light Snow
11:16 AM 17.6 °F - 14.0 °F 86% 30.07 in 10.0 mi Calm Calm - N/A   Clear
11:56 AM 17.6 °F - 15.8 °F 93% 30.05 in 7.0 mi Calm Calm - N/A   Overcast
12:16 PM 19.4 °F - 15.8 °F 86% 30.04 in 5.0 mi Calm Calm - N/A Snow Light Snow
12:36 PM 19.4 °F - 15.8 °F 86% 30.03 in 2.0 mi Calm Calm - N/A Snow Light Snow
12:56 PM 19.4 °F - 15.8 °F 86% 30.03 in 2.5 mi Calm Calm - N/A Snow Light Snow
1:16 PM 21.2 °F - 15.8 °F 80% 30.02 in 5.0 mi Calm Calm - N/A Snow Light Snow
1:36 PM 21.2 °F - 15.8 °F 80% 30.01 in 7.0 mi Calm Calm - N/A Snow Light Snow
1:56 PM 19.4 °F - 15.8 °F 86% 30.01 in 7.0 mi Calm Calm - N/A Snow Light Snow
2:16 PM 19.4 °F - 15.8 °F 86% 30.01 in 4.0 mi Calm Calm - N/A Snow Light Snow
2:36 PM 21.2 °F - 15.8 °F 80% 30.00 in 7.0 mi Calm Calm - N/A Snow Light Snow
2:56 PM 21.2 °F - 15.8 °F 80% 30.01 in 5.0 mi Calm Calm - N/A Snow Light Snow
3:16 PM 19.4 °F 14.3 °F 15.8 °F 86% 30.01 in 7.0 mi WNW 3.5 mph - N/A Snow Light Snow
3:36 PM 19.4 °F - 15.8 °F 86% 30.01 in 10.0 mi Calm Calm - N/A Snow Light Snow
3:56 PM 19.4 °F - 15.8 °F 86% 30.01 in 10.0 mi Calm Calm - N/A Snow Light Snow
4:16 PM 19.4 °F - 15.8 °F 86% 30.01 in 10.0 mi Calm Calm - N/A Snow Light Snow
4:36 PM 19.4 °F - 15.8 °F 86% 30.00 in 10.0 mi Calm Calm - N/A   Overcast
4:56 PM 17.6 °F - 15.8 °F 93% 30.01 in 10.0 mi Calm Calm - N/A Snow Light Snow
5:16 PM 17.6 °F - 15.8 °F 93% 30.01 in 10.0 mi Calm Calm - N/A Snow Light Snow
5:36 PM 17.6 °F - 15.8 °F 93% 30.01 in 10.0 mi Calm Calm - N/A   Overcast
5:56 PM 17.6 °F - 15.8 °F 93% 30.01 in 10.0 mi Calm Calm - N/A   Overcast
6:16 PM 17.6 °F - 15.8 °F 93% 30.01 in 10.0 mi Calm Calm - N/A   Overcast
6:36 PM 15.8 °F - 14.0 °F 93% 30.01 in 10.0 mi Calm Calm - N/A   Overcast
7:16 PM 12.2 °F - 10.4 °F 92% 30.01 in 10.0 mi Calm Calm - N/A   Clear
7:36 PM 12.2 °F - 10.4 °F 92% 30.01 in 10.0 mi Calm Calm - N/A   Scattered Clouds
7:56 PM 12.2 °F - 10.4 °F 92% 30.01 in 10.0 mi Calm Calm - N/A   Scattered Clouds
8:16 PM 12.2 °F - 10.4 °F 92% 30.00 in 10.0 mi Calm Calm - N/A   Mostly Cloudy
8:36 PM 12.2 °F - 10.4 °F 92% 30.00 in 10.0 mi Calm Calm - N/A   Overcast
8:56 PM 12.2 °F - 10.4 °F 92% 30.00 in 10.0 mi Calm Calm - N/A   Overcast
9:16 PM 12.2 °F - 10.4 °F 92% 30.00 in 10.0 mi Calm Calm - N/A   Overcast
9:36 PM 14.0 °F - 12.2 °F 93% 30.00 in 10.0 mi Calm Calm - N/A   Overcast
10:16 PM 15.8 °F 10.2 °F 12.2 °F 86% 30.00 in 10.0 mi West 3.5 mph - N/A   Overcast
10:36 PM 15.8 °F - 12.2 °F 86% 30.00 in 10.0 mi Calm Calm - N/A   Overcast
10:56 PM 15.8 °F - 12.2 °F 86% 30.00 in 10.0 mi Calm Calm - N/A   Overcast
11:16 PM 15.8 °F - 12.2 °F 86% 29.99 in 10.0 mi Calm Calm - N/A Snow Light Snow
11:36 PM 15.8 °F - 14.0 °F 93% 29.98 in 10.0 mi Calm Calm - N/A Snow Light Snow
11:56 PM 15.8 °F - 14.0 °F 93% 29.98 in 10.0 mi Calm Calm - N/A   Overcast